カタログに戻る

STARLINK-3515

運用中通信VLEO
NORAD 51738·PAYLOAD·🇺🇸 United States

打ち上げ Feb 21, 2022 から Cape Canaveral Space Force Station

Loading…

次のパス (今後24時間)

TLE

最新Source: CelesTrak SupGP

元期: Sep 15, 2026, 01:40 UTC

1 51738C 22016AA  26258.06993056 -.00010032  00000+0 -32267-3 0  2584
2 51738  53.1578 176.1031 0001093  86.6350 359.7782 15.31701030    18

AllMySatでSTARLINK-3515をリアルタイム追跡

Download on the App Store